Decatur, IL

10:57 PM CST on January 21, 2018 (GMT -0600)
Decatur

Weather History for KDEC - April, 2013

Change the Weather History Date:

Monday, April 15, 2013

  Actual Average Record
Temperature  
Mean Temperature 57 °F 53 °F  
Max Temperature 66 °F 64 °F 84 °F (2002)
Min Temperature 48 °F 42 °F 29 °F (2014)
Degree Days  
Heating Degree Days 8 13  
Month to date heating degree days 204 230  
Since 1 July heating degree days 5081 5214  
Cooling Degree Days 0 0  
Month to date cooling degree days 4 0  
Year to date cooling degree days 4 1  
Growing Degree Days 7 (Base 50)    
Moisture  
Dew Point 52 °F    
Average Humidity 75    
Maximum Humidity 89    
Minimum Humidity 60    
Precipitation  
Precipitation 0.20 in 0.11 in 0.94 in (2012)
Month to date precipitation 1.90 1.62  
Year to date precipitation 6.98 7.98  
Sea Level Pressure  
Sea Level Pressure 29.87 in    
Wind  
Wind Speed 13 mph (SSW)    
Max Wind Speed 28 mph    
Max Gust Speed 44 mph    
Visibility 9 miles    
Events Rain , Thunderstorm    
T = Trace of Precipitation, MM = Missing Value Source: NWS Daily Summary

Daily Weather History Graph

Daily Weather History Graph

Search for Another Location

Airport or City:

Trip Planner

Search our weather history database for the weather conditions in past years. The results will help you decide how hot, cold, wet, or windy it might be!

Date:

Astronomy

Apr. 15, 2013 Rise Set
Actual Time 6:17 AM CDT 7:34 PM CDT
Civil Twilight 5:49 AM CDT 8:02 PM CDT
Nautical Twilight 5:16 AM CDT 8:35 PM CDT
Astronomical Twilight 4:40 AM CDT 9:10 PM CDT
Moon 9:43 AM CDT (4/15) No Moon Set
Length of Visible Light 14h 12m
Length of Day
13h 16m
Waxing Crescent, 25% of the Moon is Illuminated
Apr 15
Waxing Crescent
Apr 18
First Quarter
Apr 25
Full
May 2
Last Quarter
May 9
New

Hourly Weather History & Observations

Time (CDT) Temp. Dew Point Humidity Pressure Visibility Wind Dir Wind Speed Gust Speed Precip Events Conditions
12:54 AM 60.1 °F 46.0 °F 60% 29.77 in 10.0 mi South 18.4 mph 27.6 mph N/A   Mostly Cloudy
1:54 AM 59.0 °F 46.9 °F 64% 29.79 in 10.0 mi South 18.4 mph 25.3 mph N/A   Scattered Clouds
2:54 AM 57.9 °F 48.0 °F 70% 29.75 in 10.0 mi SSE 19.6 mph 26.5 mph N/A   Mostly Cloudy
3:54 AM 57.0 °F 48.0 °F 72% 29.78 in 10.0 mi South 17.3 mph 23.0 mph N/A   Scattered Clouds
4:54 AM 55.9 °F 48.0 °F 75% 29.78 in 10.0 mi South 15.0 mph - N/A   Scattered Clouds
5:54 AM 57.0 °F 48.9 °F 74% 29.80 in 10.0 mi South 13.8 mph - N/A   Overcast
6:54 AM 57.0 °F 50.0 °F 77% 29.82 in 10.0 mi South 16.1 mph - N/A   Mostly Cloudy
7:31 AM 57.2 °F 50.0 °F 77% 29.85 in 10.0 mi South 15.0 mph - N/A   Overcast
7:54 AM 57.9 °F 50.0 °F 75% 29.86 in 10.0 mi South 11.5 mph - N/A   Overcast
8:54 AM 59.0 °F 51.1 °F 75% 29.86 in 10.0 mi SSW 13.8 mph - N/A   Overcast
9:47 AM 57.2 °F 53.6 °F 88% 29.89 in 9.0 mi South 15.0 mph - 0.01 in Rain Light Rain
9:54 AM 57.9 °F 53.1 °F 84% 29.89 in 10.0 mi SSW 13.8 mph - 0.01 in Rain Light Rain
10:54 AM 59.0 °F 55.0 °F 87% 29.87 in 10.0 mi South 13.8 mph - 0.01 in Rain Light Rain
11:50 AM 62.6 °F 57.2 °F 82% 29.85 in 10.0 mi South 15.0 mph - 0.00 in   Mostly Cloudy
11:54 AM 62.1 °F 57.0 °F 84% 29.84 in 10.0 mi South 15.0 mph - 0.00 in   Mostly Cloudy
12:38 PM 59.0 °F 55.4 °F 88% 29.87 in 8.0 mi SSW 13.8 mph - 0.00 in Rain Light Rain
12:52 PM 59.0 °F 55.4 °F 88% 29.89 in 4.0 mi SSW 13.8 mph 23.0 mph 0.02 in Rain , Thunderstorm Rain
12:54 PM 59.0 °F 55.9 °F 90% 29.89 in 4.0 mi SSW 12.7 mph - 0.03 in Rain , Thunderstorm Rain
1:20 PM 59.0 °F 57.2 °F 94% 29.87 in 3.0 mi South 12.7 mph - 0.03 in Rain , Thunderstorm Rain
1:54 PM 60.1 °F 57.0 °F 90% 29.89 in 9.0 mi SSW 15.0 mph 24.2 mph 0.04 in Rain Light Rain
2:00 PM 60.8 °F 55.4 °F 82% 29.87 in 9.0 mi South 15.0 mph 23.0 mph 0.00 in Rain Light Rain
2:36 PM 60.8 °F 57.2 °F 88% 29.88 in 2.0 mi SSW 10.4 mph - 0.07 in Rain Light Rain
2:46 PM 60.8 °F 57.2 °F 88% 29.88 in 10.0 mi SSW 11.5 mph - 0.07 in Rain Light Rain
2:54 PM 62.1 °F 57.9 °F 86% 29.87 in 9.0 mi South 12.7 mph - 0.07 in   Overcast
3:54 PM 64.0 °F 59.0 °F 84% 29.84 in 10.0 mi South 8.1 mph - N/A   Overcast
4:20 PM 64.4 °F 59.0 °F 83% 29.84 in 10.0 mi South 5.8 mph - N/A   Overcast
4:54 PM 64.0 °F 59.0 °F 84% 29.83 in 9.0 mi South 5.8 mph - N/A   Overcast
5:30 PM 64.4 °F 60.8 °F 88% 29.83 in 10.0 mi SE 3.5 mph - N/A   Mostly Cloudy
5:54 PM 66.0 °F 60.1 °F 81% 29.83 in 10.0 mi South 6.9 mph - N/A   Mostly Cloudy
6:32 PM 64.4 °F 59.0 °F 83% 29.85 in 10.0 mi NW 4.6 mph - N/A   Overcast
6:49 PM 57.2 °F 53.6 °F 88% 29.86 in 4.0 mi NNW 16.1 mph 28.8 mph 0.01 in Rain Light Rain
6:54 PM 55.9 °F 53.1 °F 90% 29.86 in 4.0 mi North 16.1 mph 28.8 mph 0.01 in Rain Light Rain
7:31 PM 53.6 °F 50.0 °F 88% 29.87 in 10.0 mi North 11.5 mph - 0.01 in Rain Light Rain
7:54 PM 53.1 °F 50.0 °F 89% 29.89 in 10.0 mi North 8.1 mph - 0.01 in Rain Light Rain
8:10 PM 53.6 °F 50.0 °F 88% 29.89 in 10.0 mi North 9.2 mph - 0.00 in   Overcast
8:25 PM 53.6 °F 50.0 °F 88% 29.90 in 10.0 mi North 10.4 mph - 0.00 in   Overcast
8:54 PM 53.1 °F 50.0 °F 89% 29.91 in 10.0 mi North 10.4 mph - 0.00 in   Overcast
9:18 PM 53.6 °F 50.0 °F 88% 29.92 in 10.0 mi North 10.4 mph - N/A   Overcast
9:27 PM 53.6 °F 50.0 °F 88% 29.92 in 10.0 mi North 11.5 mph - N/A   Overcast
9:34 PM 53.6 °F 50.0 °F 88% 29.93 in 10.0 mi North 12.7 mph - N/A   Overcast
9:54 PM 53.1 °F 50.0 °F 89% 29.94 in 10.0 mi North 11.5 mph - N/A   Overcast
10:54 PM 48.9 °F 46.0 °F 90% 29.95 in 10.0 mi North 16.1 mph - 0.00 in Rain Light Rain
11:09 PM 48.2 °F 46.4 °F 93% 29.94 in 10.0 mi North 11.5 mph 23.0 mph 0.00 in   Overcast
11:25 PM 48.2 °F 46.4 °F 93% 29.91 in 10.0 mi NNE 15.0 mph - 0.00 in   Overcast
11:46 PM 48.2 °F 44.6 °F 87% 29.90 in 10.0 mi NNE 12.7 mph - 0.00 in   Overcast
11:54 PM 48.0 °F 45.0 °F 89% 29.91 in 10.0 mi NNE 16.1 mph - 0.00 in   Overcast